Powrót do katalogu

DSCS 3-1

AktywnyMilitariaGEO
NORAD 13637·PAYLOAD·🇺🇸 United States

Wystrzelony Oct 30, 1982 z Cape Canaveral Space Force Station

Loading…

TLE

ŚwieżeSource: Space-Track

Epoka: Sep 13, 2026, 20:48 UTC

1 13637U 82106B   26256.86720250 -.00000130  00000-0  00000+0 0  9992
2 13637  12.3155 333.3065 0019179 205.7358 150.4822  0.97827942 66179

Śledź DSCS 3-1 w czasie rzeczywistym z AllMySat

Download on the App Store